User: anonymous   Login
Location: Oshawa
(43.9000°N, 78.8670°W)
Time: 00:43:49
(UTC-04:00)
Language:

Iridium 46 - Orbit

View from above orbital plane
View from above orbital plane
View from above satellite
View from above satellite

Ground track
Ground track

The orbit data is extracted from the following two-line orbital elements,

1 24905U 97043C   17207.22397414 +.00000045 +00000-0 +89840-5 0  9995
2 24905 086.3950 239.0801 0001997 103.7984 256.3434 14.34220603043429
Epoch (UTC): 26 July 2017 05:22:31
Eccentricity: 0.0001997
inclination: 86.3950°
perigee height: 776 km
apogee height: 779 km
right ascension of ascending node: 239.0801°
argument of perigee: 103.7984°
revolutions per day: 14.34220603
mean anomaly at epoch: 256.3434°
orbit number at epoch: 4342

The dashed part of the orbit path shows where the satellite is in the earth's shadow,  

DLR